Miscellaneous Local Product
Issued by NWS Hastings, NE

Home | Current Version | Previous Version | Text Only | Print | Product List | Glossary Off
Versions: 1 2 3 4 5 6 7 8 9 10 11 12 13 14 15 16 17 18 19 20 21 22 23 24 25 26 27 28 29 30 31 32 33 34 35 36 37 38 39 40 41 42 43 44 45 46 47 48 49 50

793
AXUS43 KGID 191602
MISGRI

GID CWA HOURLY WEATHER ROUNDUP
NATIONAL WEATHER SERVICE HASTINGS NE
1000 AM CST MON FEB 19 2018

NOTE: "FAIR" INDICATES FEW OR NO CLOUDS BELOW 12,000 FEET WITH NO
SIGNIFICANT WEATHER AND/OR OBSTRUCTIONS TO VISIBILITY.

...SOUTH CENTRAL NEBRASKA...

CITY           SKY/WX    TMP DP  RH WIND       PRES   REMARKS
GRAND ISLAND   LGT SNOW  16  13  88 N20G25    29.87R FOG     WCI  -1
KEARNEY        FLURRIES  15  11  83 N13G22    29.86R WCI   1
HASTINGS       LGT SNOW  16  12  84 N21       29.84R FOG     WCI  -1
ORD            LGT SNOW  14   9  80 N22G32    29.86S WCI  -4
YORK           FLURRIES  19  19 100 N13G20    29.84R WCI   7
AURORA         FLURRIES  17  13  87 N16       29.85R WCI   1
LEXINGTON      LGT SNOW  16  10  80 N17       29.86R WCI   0
HOLDREGE       FLURRIES  16  14  91 N13G22    29.85S WCI   2
HEBRON         CLOUDY    21  18  89 N14G20    29.83S WCI   8

...NEBRASKA PANHANDLE...

CITY           SKY/WX    TMP DP  RH WIND       PRES   REMARKS
CHADRON        SNOW       3  -2  79 NE13      29.95F VSB 1/2 WCI -14
ALLIANCE       LGT SNOW   4   1  88 N14       29.84S FOG     WCI -14
SCOTTSBLUFF    LGT SNOW   6   0  76 NE8       29.84F WCI  -7
SIDNEY         LGT SNOW   8   4  83 N12       29.78F FOG     WCI  -7

...WESTERN AND NORTH CENTRAL NEBRASKA...

CITY           SKY/WX    TMP DP  RH WIND       PRES   REMARKS
VALENTINE      LGT SNOW   8   2  76 N15G22    29.94F WCI  -9
AINSWORTH      LGT SNOW   8   5  86 N22       29.92R WCI -12
ONEILL         FLURRIES  11   8  86 N20G26    29.89F WCI  -7
BROKEN BOW     FLURRIES  12   7  80 N23G29    29.84S WCI  -7
IMPERIAL       FLURRIES  12   8  84 N17       29.83F WCI  -5
NORTH PLATTE   CLOUDY    12   6  77 N14       29.87S WCI  -3
MCCOOK         CLOUDY    16  11  80 N15       29.86S HAZE    WCI   1

...EASTERN NEBRASKA...

CITY           SKY/WX    TMP DP  RH WIND       PRES   REMARKS
NORFOLK        FRZ RAIN  17  16  95 N16G25    29.83S FOG     WCI   2
SO SIOUX CITY  CLOUDY    20  17  88 N20       29.85S WCI   4
TEKAMAH        CLOUDY    21  19  92 N24G33    29.83R WCI   4
COLUMBUS       MIX PCPN  19  16  88 N18G25    29.85R WCI   4
ALBION         LGT SNOW  15  11  84 N15       29.86R WCI   0
OMAHA EPPLEY   CLOUDY    25  23  92 N20       29.78R FOG     WCI  11
OFFUTT AFB     CLOUDY    26  24  93 NW9       29.78R WCI  16
MILLARD        CLOUDY    24  22  91 N8G21     29.80R FOG     WCI  16
LINCOLN        FLURRIES  23  20  88 N16       29.83R WCI  10
NEBRASKA CITY  CLOUDY    27  27 100 N14G20    29.77R FOG     WCI  15
BEATRICE       CLOUDY    25  24  94 N15       29.81R WCI  13
FALLS CITY     CLOUDY    28  27  96 NW13G28   29.75R FOG     WCI  17

...NORTHERN KANSAS...

CITY           SKY/WX    TMP DP  RH WIND       PRES   REMARKS
GOODLAND       LGT SNOW  14  10  84 N13       29.78S FOG     WCI   0
HILL CITY      CLOUDY    19  13  77 N16       29.86R WCI   4
NORTON         FLURRIES  18  10  73 N13G18    29.84S WCI   4
PHILLIPSBURG   CLOUDY    19  12  73 NW14      29.87S WCI   6
SMITH CENTER   CLOUDY    18  14  86 NW14      29.87R WCI   4
BELOIT         CLOUDY    21  18  86 NW12G18   29.87R WCI   9
HAYS           CLOUDY    22  16  78 N20       29.85  WCI   7
RUSSELL        CLOUDY    24  19  81 N17       29.83R WCI  11
CONCORDIA      CLOUDY    21  19  92 NW18      29.83R WCI   6
SALINA         CLOUDY    26  22  84 N17       29.85R WCI  13
TOPEKA         CLOUDY    36  34  92 NW16      29.77R WCI  26



USA.gov is the U.S. government's official web portal to all federal, state and local government web resources and services.